Weather History for Superior, WI

Change the Weather History Date:

Saturday, September 28, 2013

  Actual Average Record
Temperature  
Mean Temperature 58 °F -  
Max Temperature 70 °F 59 °F 82 °F (1952)
Min Temperature 45 °F 41 °F 23 °F (1961)
Degree Days  
Heating Degree Days 6    
Growing Degree Days 8 (Base 50)    
Moisture  
Dew Point 53 °F    
Average Humidity 76    
Maximum Humidity 95    
Minimum Humidity 58    
Precipitation  
Precipitation 0.15 in - - ()
Sea Level Pressure  
Sea Level Pressure 29.73 in    
Wind  
Wind Speed 11 mph (SSW)    
Max Wind Speed 22 mph    
Max Gust Speed 29 mph    
Visibility 9 miles    
Events Rain    
Averages and records for this station are not official NWS values.
T = Trace of Precipitation, MM = Missing Value Source: NWS Daily Summary

Daily Weather History Graph

Daily Weather History Graph

Search for Another Location

Airport:

Trip Planner

Search our weather history database for the weather conditions in past years. The results will help you decide how hot, cold, wet, or windy it might be!

Date:

Astronomy

Sep. 28, 2013 Rise Set
Actual Time 7:03 AM CDT 6:53 PM CDT
Civil Twilight 6:33 AM CDT 7:23 PM CDT
Nautical Twilight 5:58 AM CDT 7:58 PM CDT
Astronomical Twilight 5:22 AM CDT 8:34 PM CDT
Moon 12:32 AM CDT (9/28) 3:30 PM CDT (9/28)
Length of Visible Light 12h 50m
Length of Day
11h 50m
Waning Crescent, 36% of the Moon is Illuminated
Sep 28
Waning Crescent
Oct 4
New
Oct 11
First Quarter
Oct 18
Full
Oct 26
Last Quarter

Hourly Weather History & Observations

Time (CDT) Temp. Windchill Dew Point Humidity Pressure Visibility Wind Dir Wind Speed Gust Speed Precip Events Conditions
12:15 AM 71.6 °F - 58.3 °F 63% 29.82 in 10.0 mi South 9.2 mph 16.1 mph N/A   Clear
12:35 AM 71.2 °F - 57.4 °F 61% 29.82 in 10.0 mi SSW 11.5 mph - N/A   Clear
12:55 AM 70.0 °F - 57.2 °F 64% 29.81 in 10.0 mi SSW 11.5 mph 16.1 mph N/A   Clear
1:15 AM 70.2 °F - 56.3 °F 61% 29.81 in 10.0 mi South 10.4 mph - N/A   Clear
1:35 AM 70.5 °F - 55.6 °F 59% 29.80 in 10.0 mi South 11.5 mph 17.3 mph N/A   Clear
1:55 AM 70.7 °F - 55.4 °F 58% 29.80 in 10.0 mi SSW 10.4 mph - N/A   Clear
2:15 AM 70.0 °F - 55.2 °F 59% 29.79 in 10.0 mi South 11.5 mph 18.4 mph N/A   Clear
2:35 AM 70.2 °F - 54.7 °F 58% 29.79 in 10.0 mi SSW 10.4 mph 19.6 mph N/A   Clear
2:55 AM 70.0 °F - 54.5 °F 58% 29.79 in 10.0 mi South 11.5 mph - N/A   Clear
3:15 AM 69.1 °F - 54.3 °F 59% 29.79 in 10.0 mi SSW 9.2 mph - N/A   Clear
3:35 AM 68.9 °F - 54.0 °F 59% 29.79 in 10.0 mi South 9.2 mph - N/A   Mostly Cloudy
3:55 AM 68.0 °F - 53.6 °F 60% 29.77 in 10.0 mi South 10.4 mph 16.1 mph N/A   Mostly Cloudy
4:15 AM 67.6 °F - 53.6 °F 61% 29.76 in 10.0 mi South 11.5 mph 18.4 mph N/A   Clear
4:35 AM 67.3 °F - 53.4 °F 61% 29.76 in 10.0 mi South 11.5 mph 18.4 mph N/A   Clear
4:55 AM 66.7 °F - 53.4 °F 62% 29.75 in 10.0 mi South 11.5 mph 18.4 mph N/A   Clear
5:15 AM 66.7 °F - 53.4 °F 62% 29.75 in 10.0 mi South 16.1 mph 21.9 mph N/A   Clear
5:35 AM 66.4 °F - 53.6 °F 63% 29.75 in 10.0 mi South 15.0 mph 23.0 mph N/A   Clear
5:55 AM 66.0 °F - 53.6 °F 64% 29.74 in 10.0 mi South 12.7 mph 19.6 mph N/A   Clear
6:15 AM 66.0 °F - 54.0 °F 65% 29.74 in 10.0 mi South 12.7 mph 18.4 mph N/A   Clear
6:35 AM 65.5 °F - 54.3 °F 67% 29.74 in 10.0 mi South 11.5 mph 19.6 mph N/A   Clear
6:55 AM 64.6 °F - 54.5 °F 70% 29.72 in 10.0 mi SSE 8.1 mph 16.1 mph N/A   Scattered Clouds
7:15 AM 63.0 °F - 54.0 °F 72% 29.72 in 10.0 mi SSE 11.5 mph - N/A   Scattered Clouds
7:35 AM 63.1 °F - 53.6 °F 71% 29.71 in 10.0 mi SSE 10.4 mph - N/A   Scattered Clouds
7:55 AM 63.3 °F - 53.8 °F 71% 29.71 in 10.0 mi SSE 11.5 mph 17.3 mph N/A   Scattered Clouds
8:15 AM 63.5 °F - 54.1 °F 72% 29.70 in 10.0 mi South 10.4 mph - N/A   Scattered Clouds
8:35 AM 64.4 °F - 54.5 °F 70% 29.69 in 10.0 mi South 13.8 mph 17.3 mph N/A   Clear
8:55 AM 65.3 °F - 55.0 °F 69% 29.68 in 7.0 mi South 10.4 mph - N/A   Clear
9:15 AM 66.7 °F - 55.6 °F 67% 29.67 in 10.0 mi South 10.4 mph 16.1 mph N/A   Clear
9:35 AM 67.1 °F - 56.3 °F 68% 29.66 in 10.0 mi South 8.1 mph 18.4 mph N/A   Scattered Clouds
9:55 AM 67.5 °F - 56.5 °F 68% 29.64 in 10.0 mi SSE 12.7 mph 19.6 mph N/A   Mostly Cloudy
10:15 AM 67.3 °F - 56.7 °F 69% 29.64 in 10.0 mi South 13.8 mph 19.6 mph N/A   Overcast
10:35 AM 68.4 °F - 57.6 °F 68% 29.63 in 10.0 mi South 10.4 mph 17.3 mph N/A   Overcast
10:55 AM 68.9 °F - 57.7 °F 68% 29.62 in 10.0 mi South 11.5 mph 19.6 mph N/A   Overcast
11:15 AM 68.2 °F - 58.1 °F 70% 29.60 in 10.0 mi South 10.4 mph 17.3 mph N/A   Overcast
11:35 AM 68.0 °F - 58.3 °F 71% 29.59 in 10.0 mi South 16.1 mph 24.2 mph N/A   Overcast
11:55 AM 67.1 °F - 59.2 °F 76% 29.58 in 10.0 mi South 16.1 mph 24.2 mph N/A Rain Rain
12:15 PM 64.4 °F - 60.8 °F 88% 29.58 in 4.0 mi South 13.8 mph 20.7 mph 0.03 in Rain Light Rain
12:35 PM 63.7 °F - 61.3 °F 92% 29.58 in 7.0 mi South 11.5 mph 17.3 mph 0.05 in Rain Rain
12:55 PM 63.9 °F - 61.7 °F 93% 29.57 in 5.0 mi South 13.8 mph - 0.05 in   Light Drizzle
1:15 PM 64.0 °F - 62.1 °F 93% 29.56 in 7.0 mi South 13.8 mph 21.9 mph N/A   Overcast
1:35 PM 64.0 °F - 62.2 °F 94% 29.55 in 4.0 mi South 15.0 mph 19.6 mph N/A   Overcast
1:55 PM 64.0 °F - 62.6 °F 95% 29.55 in 5.0 mi SSW 10.4 mph 19.6 mph 0.01 in   Drizzle
2:15 PM 59.4 °F - 57.2 °F 93% 29.59 in 2.5 mi West 18.4 mph 28.8 mph 0.03 in Rain Heavy Rain
2:35 PM 57.0 °F - 54.7 °F 92% 29.61 in 7.0 mi West 21.9 mph 27.6 mph 0.04 in Rain Rain
2:55 PM 56.3 °F - 54.1 °F 92% 29.64 in 5.0 mi West 18.4 mph 24.2 mph 0.06 in Rain Light Rain
3:15 PM 55.4 °F - 53.2 °F 92% 29.65 in 5.0 mi West 17.3 mph 24.2 mph 0.02 in Rain Light Rain
3:35 PM 55.2 °F - 52.9 °F 92% 29.66 in 10.0 mi West 11.5 mph 21.9 mph 0.03 in Rain Light Rain
3:55 PM 55.0 °F - 52.3 °F 91% 29.68 in 10.0 mi WSW 15.0 mph 21.9 mph 0.03 in   Overcast
4:15 PM 55.6 °F - 52.0 °F 88% 29.69 in 10.0 mi West 12.7 mph 23.0 mph N/A   Overcast
4:35 PM 56.3 °F - 52.2 °F 86% 29.71 in 10.0 mi WSW 12.7 mph 16.1 mph N/A   Mostly Cloudy
4:55 PM 56.7 °F - 51.6 °F 83% 29.71 in 10.0 mi WSW 11.5 mph - N/A   Mostly Cloudy
5:15 PM 57.6 °F - 50.5 °F 77% 29.72 in 10.0 mi WSW 16.1 mph 21.9 mph N/A   Mostly Cloudy
5:35 PM 57.2 °F - 50.9 °F 79% 29.73 in 10.0 mi WSW 12.7 mph - N/A   Mostly Cloudy
5:55 PM 56.8 °F - 51.1 °F 81% 29.74 in 10.0 mi WSW 9.2 mph 16.1 mph N/A   Overcast
6:15 PM 57.2 °F - 49.6 °F 76% 29.75 in 10.0 mi West 13.8 mph 21.9 mph N/A   Overcast
6:35 PM 55.4 °F - 49.3 °F 80% 29.76 in 10.0 mi WSW 8.1 mph 16.1 mph N/A   Scattered Clouds
6:55 PM 53.8 °F - 48.9 °F 84% 29.77 in 10.0 mi WSW 9.2 mph - N/A   Clear
7:15 PM 53.4 °F - 48.2 °F 82% 29.78 in 10.0 mi WSW 10.4 mph - N/A   Clear
7:35 PM 54.0 °F - 48.6 °F 82% 29.79 in 10.0 mi WSW 9.2 mph - N/A   Mostly Cloudy
7:55 PM 54.1 °F - 48.6 °F 81% 29.80 in 10.0 mi WSW 11.5 mph 17.3 mph N/A   Overcast
8:15 PM 54.0 °F - 48.6 °F 82% 29.81 in 10.0 mi WSW 10.4 mph - N/A   Overcast
8:35 PM 54.1 °F - 48.4 °F 81% 29.82 in 10.0 mi WSW 10.4 mph - N/A   Overcast
8:55 PM 53.6 °F - 47.8 °F 81% 29.83 in 10.0 mi West 15.0 mph 19.6 mph N/A   Mostly Cloudy
9:15 PM 52.9 °F - 46.9 °F 80% 29.84 in 10.0 mi West 12.7 mph - N/A   Scattered Clouds
9:35 PM 51.8 °F - 46.6 °F 82% 29.86 in 10.0 mi WSW 9.2 mph - N/A   Clear
9:55 PM 50.9 °F - 46.0 °F 83% 29.86 in 10.0 mi WSW 9.2 mph - N/A   Clear
10:15 PM 49.6 °F - 45.5 °F 86% 29.87 in 10.0 mi WSW 6.9 mph - N/A   Clear
10:35 PM 48.6 °F - 45.1 °F 88% 29.87 in 10.0 mi SW 5.8 mph - N/A   Clear
10:55 PM 48.2 °F - 45.1 °F 89% 29.87 in 10.0 mi SW 6.9 mph - N/A   Clear
11:15 PM 47.5 °F - 44.8 °F 90% 29.87 in 10.0 mi SW 8.1 mph - N/A   Clear
11:35 PM 46.8 °F - 44.6 °F 92% 29.87 in 10.0 mi WSW 5.8 mph - N/A   Clear
11:55 PM 45.7 °F 44.4 °F 43.9 °F 93% 29.88 in 10.0 mi WSW 3.5 mph - N/A   Clear